Weather History for KVPS - December, 2012

Change the Weather History Date:

Saturday, December 29, 2012

  Actual Average Record
Temperature  
Mean Temperature 50 °F -  
Max Temperature 64 °F 64 °F 75 °F (1974)
Min Temperature 35 °F 39 °F 22 °F (1961)
Degree Days  
Heating Degree Days 15    
Moisture  
Dew Point 42 °F    
Average Humidity 75    
Maximum Humidity 94    
Minimum Humidity 54    
Precipitation  
Precipitation 0.01 in - - ()
Sea Level Pressure  
Sea Level Pressure 30.05 in    
Wind  
Wind Speed 9 mph (NNW)    
Max Wind Speed 20 mph    
Max Gust Speed 25 mph    
Visibility 10 miles    
Events      
Averages and records for this station are not official NWS values.
T = Trace of Precipitation, MM = Missing Value Source: NWS Daily Summary

Daily Weather History Graph

Daily Weather History Graph

Search for Another Location

Airport or City:

Trip Planner

Search our weather history database for the weather conditions in past years. The results will help you decide how hot, cold, wet, or windy it might be!

Date:

Astronomy

Dec. 29, 2012 Rise Set
Actual Time 6:42 AM CST 4:54 PM CST
Civil Twilight 6:15 AM CST 5:21 PM CST
Nautical Twilight 5:45 AM CST 5:51 PM CST
Astronomical Twilight 5:16 AM CST 6:20 PM CST
Moon 6:19 PM CST (12/29) 7:21 AM CST (12/29)
Length of Visible Light 11h 05m
Length of Day
10h 12m
Full, 98% of the Moon is Illuminated
Dec 29
Full
Jan 4
Last Quarter
Jan 11
New
Jan 18
First Quarter
Jan 26
Full

Hourly Weather History & Observations

Time (CST) Temp. Windchill Dew Point Humidity Pressure Visibility Wind Dir Wind Speed Gust Speed Precip Events Conditions
12:09 AM 64.4 °F - 62.6 °F 94% 29.77 in 10.0 mi Variable 3.5 mph - N/A   Mostly Cloudy
12:55 AM 64.6 °F - 62.8 °F 94% 29.78 in 10.0 mi Variable 5.8 mph - 0.00 in   Overcast
1:04 AM 64.4 °F - 62.6 °F 94% 29.79 in 10.0 mi WNW 8.1 mph - N/A   Overcast
1:55 AM 62.8 °F - 59.2 °F 88% 29.81 in 10.0 mi WNW 10.4 mph 20.7 mph N/A   Mostly Cloudy
2:07 AM 62.6 °F - 59.0 °F 88% 29.82 in 10.0 mi NW 12.7 mph 19.6 mph N/A   Overcast
2:18 AM 60.8 °F - 57.2 °F 88% 29.81 in 10.0 mi NW 12.7 mph 23.0 mph N/A   Overcast
2:55 AM 58.1 °F - 54.3 °F 87% 29.86 in 10.0 mi NW 13.8 mph 20.7 mph N/A   Overcast
3:11 AM 55.4 °F - 51.8 °F 88% 29.87 in 10.0 mi NW 13.8 mph 25.3 mph N/A   Light Drizzle
3:29 AM 55.4 °F - 50.0 °F 82% 29.88 in 10.0 mi NW 12.7 mph 23.0 mph N/A   Overcast
3:55 AM 54.3 °F - 49.3 °F 83% 29.88 in 10.0 mi NNW 10.4 mph 18.4 mph 0.00 in   Overcast
4:27 AM 53.6 °F - 48.2 °F 82% 29.91 in 10.0 mi NW 12.7 mph 19.6 mph N/A   Mostly Cloudy
4:55 AM 52.0 °F - 45.3 °F 78% 29.94 in 10.0 mi WNW 8.1 mph 20.7 mph N/A   Mostly Cloudy
5:55 AM 49.8 °F - 43.9 °F 80% 29.98 in 10.0 mi NW 8.1 mph 16.1 mph N/A   Mostly Cloudy
6:55 AM 48.2 °F - 41.7 °F 78% 30.03 in 10.0 mi NNW 10.4 mph - N/A   Mostly Cloudy
7:55 AM 47.1 °F - 39.7 °F 76% 30.07 in 10.0 mi NNW 12.7 mph 24.2 mph N/A   Mostly Cloudy
8:55 AM 47.1 °F - 39.9 °F 76% 30.09 in 10.0 mi NW 8.1 mph 21.9 mph N/A   Overcast
9:55 AM 46.2 °F 39.3 °F 38.3 °F 74% 30.12 in 10.0 mi NNW 17.3 mph 23.0 mph N/A   Mostly Cloudy
10:55 AM 46.9 °F - 36.7 °F 68% 30.12 in 10.0 mi North 12.7 mph 21.9 mph N/A   Mostly Cloudy
11:39 AM 48.2 °F - 37.4 °F 66% 30.13 in 10.0 mi NNW 19.6 mph 24.2 mph N/A   Mostly Cloudy
11:55 AM 47.7 °F - 36.5 °F 65% 30.11 in 10.0 mi North 12.7 mph 23.0 mph N/A   Mostly Cloudy
12:55 PM 48.7 °F - 35.8 °F 61% 30.11 in 10.0 mi NNW 9.2 mph 18.4 mph N/A   Mostly Cloudy
1:15 PM 48.2 °F - 35.6 °F 62% 30.11 in 10.0 mi NNW 13.8 mph - N/A   Mostly Cloudy
1:55 PM 48.6 °F - 34.9 °F 59% 30.12 in 10.0 mi NNW 13.8 mph 20.7 mph N/A   Mostly Cloudy
2:55 PM 50.0 °F - 33.8 °F 54% 30.14 in 10.0 mi NNW 11.5 mph - N/A   Mostly Cloudy
3:55 PM 48.2 °F - 32.0 °F 54% 30.18 in 10.0 mi NNW 8.1 mph - N/A   Mostly Cloudy
4:55 PM 46.2 °F 40.8 °F 33.1 °F 60% 30.20 in 10.0 mi NNW 11.5 mph 16.1 mph N/A   Mostly Cloudy
5:55 PM 43.7 °F 39.7 °F 32.0 °F 63% 30.23 in 10.0 mi NNW 6.9 mph - N/A   Mostly Cloudy
6:55 PM 42.1 °F 35.7 °F 31.1 °F 65% 30.26 in 10.0 mi North 11.5 mph - N/A   Mostly Cloudy
7:55 PM 40.3 °F 36.3 °F 30.2 °F 67% 30.29 in 10.0 mi NNW 5.8 mph - N/A   Scattered Clouds
8:55 PM 38.8 °F 34.6 °F 29.5 °F 69% 30.32 in 10.0 mi NNW 5.8 mph - N/A   Scattered Clouds
9:55 PM 36.9 °F 33.1 °F 29.1 °F 74% 30.34 in 10.0 mi NNW 4.6 mph - N/A   Partly Cloudy
10:55 PM 36.0 °F 32.1 °F 28.6 °F 75% 30.36 in 10.0 mi NW 4.6 mph - N/A   Clear
11:55 PM 35.4 °F 32.6 °F 28.0 °F 75% 30.35 in 10.0 mi NNW 3.5 mph - N/A   Scattered Clouds